カタログに戻る

DELTA 1 DEB

運用中PO
NORAD 18779·DEBRIS·🇺🇸 United States

打ち上げ Mar 5, 1978 から Vandenberg Space Force Base

Loading…

次のパス (今後24時間)

TLE

最新Source: Space-Track

元期: Sep 13, 2026, 19:45 UTC

1 18779U 78026HJ  26256.82351858  .00002352  00000-0  73621-3 0  9990
2 18779  99.0658 279.1458 0061608 245.2263 290.4261 14.40625110  6107

AllMySatでDELTA 1 DEBをリアルタイム追跡

Download on the App Store